Location: Newark
(39.0622°N, 106.5590°E)
Time: 13:05:29
(UTC+00:00)

Tiros 1 - Visible Passes

Search period start: 17 January 2020 00:00
Search period end: 27 January 2020 00:00
Orbit: 630 x 664 km, 48.4° (Epoch: 16 January)

Date Brightness Start Highest point End Pass type
(mag) Time Alt. Az. Time Alt. Az. Time Alt. Az.
17 Jan 8.6 11:12:56 10° WNW 11:16:59 26° N 11:19:09 19° NE visible
17 Jan 9.7 12:55:42 10° NW 12:56:50 16° NW 12:56:50 16° NW visible
18 Jan 8.4 11:39:26 10° NW 11:43:33 28° N 11:44:10 27° NNE visible
18 Jan 10.2 13:21:44 10° NW 13:21:51 11° NW 13:21:51 11° NW visible
19 Jan 8.5 10:22:50 10° WNW 10:26:52 27° N 10:30:58 10° NE visible
19 Jan 8.3 12:05:39 10° NW 12:09:14 32° N 12:09:14 32° N visible
20 Jan 8.4 10:49:21 10° NW 10:53:27 27° N 10:56:40 14° ENE visible
20 Jan 8.7 12:31:41 10° NW 12:34:20 31° NW 12:34:20 31° NW visible
21 Jan 8.1 11:15:35 10° NW 11:19:57 34° NNE 11:21:51 25° ENE visible
21 Jan 9.3 12:57:43 10° WNW 12:59:32 23° WNW 12:59:32 23° WNW visible
22 Jan 7.4 11:41:38 10° NW 11:46:19 51° NNE 11:47:08 45° ENE visible
22 Jan 10.0 13:24:01 10° WNW 13:24:49 14° WNW 13:24:49 14° WNW visible
23 Jan 8.1 10:25:32 10° NW 10:29:51 32° NNE 10:34:11 10° E visible
23 Jan 7.0 12:07:40 10° WNW 12:12:28 88° SW 12:12:33 87° SSE visible
24 Jan 7.5 10:51:36 10° NW 10:56:14 48° NNE 11:00:25 13° E visible
24 Jan 8.2 12:33:54 10° WNW 12:38:08 41° SW 12:38:08 41° SW visible
25 Jan 7.1 11:17:36 10° WNW 11:22:25 86° NNE 11:26:12 16° ESE visible
25 Jan 9.5 13:00:49 10° W 13:03:56 19° SW 13:03:56 19° SW visible
26 Jan 8.1 11:43:49 10° WNW 11:48:24 46° SW 11:52:16 14° SSE visible
